This is the latest recevied weather packets stored in our database for station/object WX2NJ-13. If no packets are shown the sender has not sent any weather packets the latest 1 day(s).
| Time | Temp. | Humidity | Pressure | Rain* | Wind** | Luminosity | Snow |
|---|---|---|---|---|---|---|---|
| 1778030969 | 18.89° C | 65% | 1012.7 hPa | 0 mm | 3.13 m/s, 172° | - | - |
| 1778030667 | 19.44° C | 65% | 1012.6 hPa | 0 mm | 2.24 m/s, 191° | - | - |
| 1778030369 | 19.44° C | 65% | 1012.5 hPa | 0 mm | 1.79 m/s, 180° | - | - |
| 1778029769 | 19.44° C | 64% | 1012.3 hPa | 0 mm | 2.24 m/s, 156° | - | - |
| 1778029172 | 19.44° C | 62% | 1012.3 hPa | 0 mm | 1.79 m/s, 181° | - | - |
| 1778028870 | 19.44° C | 61% | 1012.4 hPa | 0 mm | 2.24 m/s, 188° | - | - |
| 1778028572 | 19.44° C | 61% | 1012.3 hPa | 0 mm | 2.24 m/s, 153° | - | - |
| 1778028273 | 19.44° C | 60% | 1012.3 hPa | 0 mm | 1.79 m/s, 155° | - | - |
| 1778027972 | 19.44° C | 60% | 1012.2 hPa | 0 mm | 2.24 m/s, 152° | - | - |
| 1778027673 | 19.44° C | 59% | 1012.2 hPa | 0 mm | 1.34 m/s, 187° | - | - |
| 1778027374 | 19.44° C | 59% | 1012.1 hPa | 0 mm | 1.79 m/s, 143° | - | - |
| 1778027073 | 19.44° C | 59% | 1012 hPa | 0 mm | 1.79 m/s, 159° | - | - |
| 1778026774 | 19.44° C | 59% | 1012 hPa | 0 mm | 3.13 m/s, 203° | - | - |
| 1778026476 | 19.44° C | 58% | 1012 hPa | 0 mm | 1.34 m/s, 167° | - | - |
| 1778024977 | 20° C | 56% | 1011.6 hPa | 1.02 mm | 1.79 m/s, 221° | - | - |
| 1778024377 | 20.56° C | 56% | 1011.5 hPa | 1.02 mm | 1.79 m/s, 163° | - | - |
| 1778023180 | 21.11° C | 53% | 1011.6 hPa | 1.02 mm | 2.24 m/s, 177° | - | - |
| 1778022281 | 21.11° C | 52% | 1011.5 hPa | 1.02 mm | 1.79 m/s, 211° | - | - |
| 1778021681 | 21.67° C | 51% | 1011.4 hPa | 0 mm | 3.13 m/s, 215° | - | - |
| 1778020782 | 21.67° C | 50% | 1011 hPa | 0 mm | 2.24 m/s, 212° | - | - |
| 1778018984 | 22.78° C | 49% | 1010.8 hPa | 0 mm | 1.34 m/s, 174° | - | - |
* Rain latest hour (hover to see other rain measurements)
** Current wind speed in m/s (hover to see current wind gust speed)